KG9NS Weather Reports


time (UTC)temp
F
wind
direction
speed
knots
gust
knots
rain 1hr
in
rain 24hr
in
rain mn
in
humidity
%
barometer
mb
20260503184731 59 212 4.3 12.2 0.00 0.00 0.00 42 1016.5
20260503184231 59 204 4.3 7.8 0.00 0.00 0.00 41 1016.8
20260503183731 59 219 7.0 11.3 0.00 0.00 0.00 41 1016.9
20260503183231 59 162 6.1 8.7 0.00 0.00 0.00 41 1016.8
20260503182731 59 226 10.4 13.0 0.00 0.00 0.00 40 1016.8
20260503182233 59 238 7.8 9.6 0.00 0.00 0.00 41 1016.9
20260503181731 60 202 6.1 7.8 0.00 0.00 0.00 41 1017.1
20260503181232 59 169 7.0 11.3 0.00 0.00 0.00 41 1017.0
20260503180732 59 226 7.0 9.6 0.00 0.00 0.00 42 1017.1
20260503180231 59 215 6.1 8.7 0.00 0.00 0.00 41 1017.1
20260503175731 59 172 5.2 7.8 0.00 0.00 0.00 40 1017.1
20260503175231 59 228 6.1 8.7 0.00 0.00 0.00 40 1017.3
20260503174731 59 230 7.8 9.6 0.00 0.00 0.00 42 1017.2
20260503174231 59 205 5.2 7.8 0.00 0.00 0.00 44 1017.5
20260503173731 59 220 7.0 11.3 0.00 0.00 0.00 43 1017.5
20260503173231 59 228 7.8 9.6 0.00 0.00 0.00 41 1017.6
20260503172731 59 251 5.2 11.3 0.00 0.00 0.00 42 1017.7
20260503172231 59 221 6.1 7.8 0.00 0.00 0.00 41 1017.9
20260503171732 58 191 6.1 11.3 0.00 0.00 0.00 44 1017.9
20260503171231 58 219 4.3 7.0 0.00 0.00 0.00 43 1018.0
20260503170731 58 228 6.1 10.4 0.00 0.00 0.00 43 1018.1
20260503170231 58 231 7.0 9.6 0.00 0.00 0.00 43 1018.2
20260503150731 53 225 6.1 9.6 0.00 0.00 0.00 52 1019.6
20260503150233 53 216 7.8 12.2 0.00 0.00 0.00 52 1019.5
20260503140231 50 216 7.8 9.6 0.00 0.00 0.00 56 1019.4
20260503131231 46 219 5.2 7.8 0.00 0.00 0.00 67 1019.2
20260503130731 46 217 5.2 8.7 0.00 0.00 0.00 69 1019.3
20260503130231 46 198 3.5 4.3 0.00 0.00 0.00 70 1019.3
20260503110732 35 195 0.9 1.7 0.00 0.00 0.00 91 1018.6
20260503110231 35 188 0.9 1.7 0.00 0.00 0.00 91 1018.6
20260503100231 36 187 1.7 1.7 0.00 0.00 0.00 92 1018.1
20260503090231 34 194 0.9 1.7 0.00 0.00 0.00 97 1018.1
20260503081231 33 177 0.9 1.7 0.00 0.00 0.00 96 1018.0
20260503080731 33 0 0.0 0.0 0.00 0.00 0.00 96 1018.0
20260503080232 34 93 0.0 0.9 0.00 0.00 0.00 96 1017.9
20260503072732 33 137 0.0 0.9 0.00 0.00 0.00 95 1017.9
20260503072231 33 101 0.0 0.9 0.00 0.00 0.00 95 1017.9
20260503071731 33 116 0.0 0.9 0.00 0.00 0.00 95 1018.0
20260503071231 33 89 0.0 0.9 0.00 0.00 0.00 94 1018.0
20260503070731 33 98 0.0 0.9 0.00 0.00 0.00 94 1018.0
20260503070231 33 104 0.0 0.9 0.00 0.00 0.00 94 1018.0
20260503060231 34 126 0.0 0.9 0.00 0.00 0.00 92 1018.3
20260503054731 35 121 0.0 0.9 0.00 0.00 0.00 91 1018.4
20260503054231 35 131 0.0 0.9 0.00 0.00 0.00 91 1018.4
20260503053731 35 0 0.0 0.0 0.00 0.00 0.00 91 1018.4
20260503053231 35 0 0.0 0.0 0.00 0.00 0.00 91 1018.4
20260503052731 35 0 0.0 0.0 0.00 0.00 0.00 91 1018.4
20260503052231 35 119 0.0 0.9 0.00 0.00 0.00 91 1018.4
20260503051731 35 350 0.0 0.0 0.00 0.00 0.00 92 1018.4
20260503051231 35 53 0.0 0.9 0.00 0.00 0.00 92 1018.4
20260503050731 35 56 0.9 1.7 0.00 0.00 0.00 92 1018.4
20260503050231 35 87 0.0 0.9 0.00 0.00 0.00 92 1018.4
20260503045731 35 0 0.0 0.0 0.00 0.00 0.00 92 1018.4
20260503045231 35 117 0.0 0.9 0.00 0.00 0.00 92 1018.4
20260503044731 35 0 0.0 0.0 0.00 0.00 0.00 91 1018.3
20260503044231 35 127 0.0 0.9 0.00 0.00 0.00 91 1018.3
20260503043731 35 0 0.0 0.0 0.00 0.00 0.00 91 1018.3
20260503043232 35 128 0.0 0.9 0.00 0.00 0.00 91 1018.4
20260503042731 35 0 0.0 0.0 0.00 0.00 0.00 91 1018.4
20260503042232 35 0 0.0 0.0 0.00 0.00 0.00 90 1018.4
20260503041731 36 124 0.0 0.9 0.00 0.00 0.00 90 1018.4
20260503041231 36 130 0.0 0.0 0.00 0.00 0.00 90 1018.4
20260503040731 36 93 0.0 0.9 0.00 0.00 0.00 90 1018.4
20260503040231 36 88 0.0 0.9 0.00 0.00 0.00 90 1018.4
20260503035731 36 74 0.0 0.9 0.00 0.00 0.00 90 1018.4
20260503035231 36 58 0.0 0.9 0.00 0.00 0.00 89 1018.4
20260503034731 36 104 0.0 0.9 0.00 0.00 0.00 89 1018.4
20260503034231 36 135 0.0 0.9 0.00 0.00 0.00 89 1018.4
20260503033731 36 126 0.0 0.0 0.00 0.00 0.00 88 1018.4
20260503033231 36 126 0.0 0.9 0.00 0.00 0.00 88 1018.4
20260503032731 36 103 0.0 0.9 0.00 0.00 0.00 87 1018.4
20260503032231 36 147 0.0 0.0 0.00 0.00 0.00 87 1018.4
20260503031731 37 0 0.0 0.0 0.00 0.00 0.00 86 1018.5
20260503031231 37 0 0.0 0.0 0.00 0.00 0.00 86 1018.5
20260503030731 37 0 0.0 0.0 0.00 0.00 0.00 86 1018.5
20260503030231 38 58 0.9 0.9 0.00 0.00 0.00 85 1018.4
20260503025732 38 75 0.0 0.9 0.00 0.00 0.00 84 1018.5
20260503025232 38 102 0.0 0.9 0.00 0.00 0.00 83 1018.5
20260503024731 38 0 0.0 0.0 0.00 0.00 0.00 82 1018.5
20260503024231 38 89 0.0 0.9 0.00 0.00 0.00 82 1018.5
20260503023731 38 0 0.0 0.0 0.00 0.00 0.00 81 1018.5
20260503023231 39 0 0.0 0.0 0.00 0.00 0.00 80 1018.5
20260503022732 39 64 0.9 1.7 0.00 0.00 0.00 79 1018.5
20260503022232 39 99 0.0 0.9 0.00 0.00 0.00 78 1018.5
20260503021731 39 132 0.9 1.7 0.00 0.00 0.00 77 1018.4
20260503021231 39 0 0.0 0.0 0.00 0.00 0.00 75 1018.4
20260503020731 39 0 0.0 0.0 0.00 0.00 0.00 75 1018.3
20260503020231 40 0 0.0 0.0 0.00 0.00 0.00 73 1018.3
20260503015730 40 154 0.0 0.0 0.00 0.00 0.00 72 1018.3
20260503015231 41 0 0.0 0.0 0.00 0.00 0.00 71 1018.3
20260503014732 41 197 0.9 1.7 0.00 0.00 0.00 70 1018.3
20260503014231 42 167 0.0 1.7 0.00 0.00 0.00 67 1018.2
20260503013731 42 134 0.0 0.0 0.00 0.00 0.00 66 1018.2
20260503013231 43 0 0.0 0.0 0.00 0.00 0.00 66 1018.2
20260503012731 43 101 0.0 0.0 0.00 0.00 0.00 65 1018.1
20260503012231 44 0 0.0 0.0 0.00 0.00 0.00 63 1018.1
20260503011732 44 82 0.0 0.0 0.00 0.00 0.00 62 1018.0
20260503011230 44 49 0.0 0.9 0.00 0.00 0.00 61 1018.0
20260503010731 45 0 0.0 0.0 0.00 0.00 0.00 60 1017.9
20260503010231 45 60 0.0 0.9 0.00 0.00 0.00 60 1017.9
20260503005731 46 19 0.0 1.7 0.00 0.00 0.00 59 1017.9
20260503005231 46 57 0.0 1.7 0.00 0.00 0.00 57 1017.8
20260503004731 46 22 1.7 2.6 0.00 0.00 0.00 56 1017.8
20260503004231 47 14 1.7 3.5 0.00 0.00 0.00 56 1017.7
20260503003731 47 14 1.7 3.5 0.00 0.00 0.00 56 1017.8
20260503003231 47 17 0.9 1.7 0.00 0.00 0.00 56 1017.8
20260503002731 47 24 1.7 2.6 0.00 0.00 0.00 56 1017.8
20260503002232 47 328 1.7 3.5 0.00 0.00 0.00 55 1017.8
20260503001731 48 33 0.9 2.6 0.00 0.00 0.00 55 1017.7
20260503001231 48 13 2.6 5.2 0.00 0.00 0.00 54 1017.6
20260503000731 48 2 1.7 4.3 0.00 0.00 0.00 54 1017.6
20260503000233 48 340 1.7 4.3 0.00 0.00 0.00 53 1017.5
20260502235732 48 10 2.6 6.1 0.00 0.00 0.00 52 1017.5
20260502235232 49 2 3.5 6.1 0.00 0.00 0.00 52 1017.5
20260502234732 49 348 0.9 4.3 0.00 0.00 0.00 52 1017.5
20260502234231 49 15 2.6 4.3 0.00 0.00 0.00 52 1017.3
20260502233731 49 9 1.7 3.5 0.00 0.00 0.00 51 1017.3
20260502233231 50 26 1.7 3.5 0.00 0.00 0.00 51 1017.3
20260502232731 49 357 3.5 4.3 0.00 0.00 0.00 50 1017.2
20260502232231 49 14 4.3 6.1 0.00 0.00 0.00 50 1017.2
20260502231732 50 22 1.7 2.6 0.00 0.00 0.00 51 1017.3
20260502231231 50 358 0.9 1.7 0.00 0.00 0.00 50 1017.3
20260502230734 50 1 1.7 5.2 0.00 0.00 0.00 50 1017.2
20260502230231 50 355 3.5 6.1 0.00 0.00 0.00 50 1017.2
20260502225731 50 17 0.9 2.6 0.00 0.00 0.00 50 1017.2
20260502225231 50 348 1.7 2.6 0.00 0.00 0.00 49 1017.2
20260502224731 51 348 2.6 3.5 0.00 0.00 0.00 49 1017.2
20260502224231 51 7 1.7 3.5 0.00 0.00 0.00 48 1017.1
20260502223731 51 352 2.6 3.5 0.00 0.00 0.00 48 1017.0
20260502223232 51 19 2.6 3.5 0.00 0.00 0.00 48 1017.0
20260502222731 51 21 1.7 3.5 0.00 0.00 0.00 48 1017.1
20260502222231 51 328 1.7 3.5 0.00 0.00 0.00 48 1017.0
20260502221731 51 355 3.5 6.1 0.00 0.00 0.00 48 1017.0
20260502221231 51 10 3.5 7.0 0.00 0.00 0.00 48 1016.9
20260502220731 51 8 1.7 3.5 0.00 0.00 0.00 48 1017.0
20260502220231 52 355 4.3 6.1 0.00 0.00 0.00 47 1016.9
20260502215731 52 243 1.7 4.3 0.00 0.00 0.00 47 1016.9
20260502215232 52 7 1.7 5.2 0.00 0.00 0.00 47 1016.9
20260502214731 52 231 0.9 1.7 0.00 0.00 0.00 46 1016.9
20260502214231 51 193 2.6 3.5 0.00 0.00 0.00 47 1016.8
20260502213731 52 225 2.6 4.3 0.00 0.00 0.00 46 1016.8
20260502213231 52 349 1.7 3.5 0.00 0.00 0.00 46 1016.8
20260502212731 52 349 1.7 5.2 0.00 0.00 0.00 46 1016.8
20260502212231 52 356 2.6 5.2 0.00 0.00 0.00 47 1016.7
20260502211731 52 348 3.5 4.3 0.00 0.00 0.00 46 1016.8
20260502211231 51 359 1.7 3.5 0.00 0.00 0.00 46 1016.8
20260502210731 52 2 3.5 7.0 0.00 0.00 0.00 47 1016.8
20260502210231 52 6 2.6 6.1 0.00 0.00 0.00 46 1016.6
20260502205731 51 359 3.5 5.2 0.00 0.00 0.00 47 1016.6
20260502205231 51 344 2.6 5.2 0.00 0.00 0.00 47 1016.6
20260502204732 52 2 5.2 7.8 0.00 0.00 0.00 46 1016.7
20260502204231 52 1 2.6 4.3 0.00 0.00 0.00 45 1016.7
20260502203731 53 11 1.7 3.5 0.00 0.00 0.00 46 1016.7
20260502203231 53 358 2.6 4.3 0.00 0.00 0.00 46 1016.8
20260502202731 54 5 4.3 7.0 0.00 0.00 0.00 46 1016.7
20260502202232 53 217 2.6 7.8 0.00 0.00 0.00 47 1016.8
20260502201731 53 11 3.5 8.7 0.00 0.00 0.00 47 1016.7
20260502201231 53 22 1.7 3.5 0.00 0.00 0.00 46 1016.8
20260502200731 52 5 2.6 4.3 0.00 0.00 0.00 48 1016.8
20260502200231 51 6 1.7 4.3 0.00 0.00 0.00 47 1016.9
20260502195731 52 354 3.5 5.2 0.00 0.00 0.00 46 1017.0
20260502195231 52 20 1.7 5.2 0.00 0.00 0.00 46 1017.1
20260502194731 52 59 0.9 3.5 0.00 0.00 0.00 45 1017.0
20260502194231 52 39 1.7 4.3 0.00 0.00 0.00 46 1017.1
20260502193731 52 356 3.5 5.2 0.00 0.00 0.00 48 1017.1
20260502193231 52 0 3.5 5.2 0.00 0.00 0.00 47 1017.1
20260502192732 53 1 2.6 3.5 0.00 0.00 0.00 46 1017.2
20260502192231 53 263 4.3 9.6 0.00 0.00 0.00 47 1017.2
20260502191731 53 227 4.3 8.7 0.00 0.00 0.00 48 1017.2
20260502191231 53 15 3.5 6.1 0.00 0.00 0.00 46 1017.3
20260502190732 54 42 1.7 2.6 0.00 0.00 0.00 46 1017.3
20260502190231 53 249 1.7 5.2 0.00 0.00 0.00 50 1017.5
20260502185739 52 355 1.7 4.3 0.00 0.00 0.00 48 1017.5
20260502185231 52 203 1.7 3.5 0.00 0.00 0.00 47 1017.3